period_start,C,m1,H,J0,J1,J2,J3,J4,J5,JA,JB,JC,JD,JJ,JK,JN,#
2015-06-10 00:00:16,0.00,0.10,0.00,25.22,28.55,31.02,4.70,23.11,1019.55,2032.00,3487.01,3279.00,3564.00,349.65,345.96,8.20,0000 0000 0000 0000 000000
2015-06-10 00:05:17,0.00,0.10,0.00,25.25,28.57,31.05,4.72,23.13,1019.55,2032.00,3486.96,3278.99,3563.99,349.77,345.92,8.23,0000 0000 0000 0000 000000
2015-06-10 00:10:18,0.02,0.10,0.00,25.28,28.59,31.06,4.71,23.14,1019.55,2032.00,3486.67,3278.90,3563.93,349.68,345.43,8.26,0000 0000 0000 0000 000000
2015-06-10 00:15:19,0.04,0.10,0.00,25.30,28.61,31.08,4.68,23.07,1019.55,2032.00,3486.15,3278.50,3563.49,349.58,345.71,8.29,0000 0000 0000 0000 000000
2015-06-10 00:20:21,0.02,0.10,0.00,25.33,28.64,31.11,4.74,23.15,1019.55,2031.99,3486.01,3278.10,3563.07,349.97,345.90,8.32,0000 0000 0000 0000 000000
2015-06-10 00:25:22,0.00,0.10,0.00,25.36,28.66,31.12,4.71,23.02,1019.55,2031.98,3486.00,3278.02,3563.02,350.05,345.73,8.35,0000 0000 0000 0000 000000
2015-06-10 00:30:23,0.00,0.10,0.00,25.39,28.68,31.14,4.81,23.26,1019.55,2031.94,3485.88,3278.00,3562.98,350.06,345.97,8.38,0000 0000 0000 0000 000000
2015-06-10 00:35:24,-0.00,0.10,0.00,25.42,28.70,31.16,4.74,23.07,1019.55,2031.91,3485.75,3277.99,3562.89,350.38,346.21,8.41,0000 0000 0000 0000 000000
2015-06-10 00:40:25,-0.06,0.10,0.00,25.45,28.72,31.19,4.74,23.05,1019.56,2031.36,3485.32,3277.81,3562.26,350.05,345.88,8.43,0000 0000 0000 0000 000000
2015-06-10 00:45:27,-0.00,0.10,0.00,25.48,28.75,31.23,4.73,23.05,1019.55,2031.16,3485.06,3277.38,3562.03,350.18,345.69,8.46,0000 0000 0000 0000 000000
2015-06-10 00:50:28,0.00,0.10,0.00,25.51,28.77,31.24,4.63,23.07,1019.55,2031.03,3484.96,3277.11,3562.00,348.83,344.59,8.49,0000 0000 0000 0000 000000
2015-06-10 00:55:29,0.01,0.10,0.00,25.54,28.80,31.27,4.70,23.07,1019.55,2031.01,3484.69,3277.00,3561.99,349.58,345.49,8.52,0000 0000 0000 0000 000000
2015-06-10 01:00:30,0.01,0.10,0.00,25.57,28.82,31.28,4.70,23.07,1019.55,2031.01,3484.29,3276.98,3561.85,349.97,345.56,8.55,0000 0000 0000 0000 000000
2015-06-10 01:05:32,0.04,0.10,0.00,25.61,28.85,31.30,4.74,23.12,1019.52,2030.99,3484.02,3276.68,3561.15,349.69,345.17,8.58,0000 0000 0000 0000 000000
2015-06-10 01:10:33,0.02,0.10,0.00,25.64,28.87,31.34,4.72,23.10,1019.53,2030.99,3484.00,3276.19,3561.01,350.17,345.84,8.61,0000 0000 0000 0000 000000
2015-06-10 01:15:34,-0.00,0.10,0.00,25.67,28.90,31.36,4.71,23.02,1019.50,2030.98,3484.00,3276.02,3560.99,350.20,345.78,8.64,0000 0000 0000 0000 000000
2015-06-10 01:20:36,0.01,0.10,0.00,25.70,28.92,31.40,4.74,23.08,1019.47,2030.93,3483.61,3276.00,3560.88,349.64,345.27,8.67,0000 0000 0000 0000 000000
2015-06-10 01:25:37,-0.07,0.10,0.00,25.74,28.95,31.42,4.75,23.07,1019.45,2030.39,3483.06,3275.90,3560.12,350.06,345.59,8.70,0000 0000 0000 0000 000000
2015-06-10 01:30:38,0.00,0.10,0.00,25.77,28.97,31.43,4.75,23.27,1019.35,2030.07,3483.00,3275.25,3560.00,350.48,345.98,8.73,0000 0000 0000 0000 000000
2015-06-10 01:35:39,-0.00,0.10,0.00,25.80,29.00,31.46,4.67,23.02,1019.21,2030.04,3482.98,3275.05,3559.99,349.24,344.42,8.76,0000 0000 0000 0000 000000
2015-06-10 01:40:40,0.01,0.10,0.00,25.84,29.02,31.49,4.76,23.07,1019.07,2030.00,3482.60,3275.00,3559.96,350.30,345.47,8.79,0000 0000 0000 0000 000000
2015-06-10 01:45:41,0.03,0.10,0.00,25.87,29.05,31.51,4.76,23.07,1019.08,2030.00,3482.11,3274.99,3559.49,350.05,345.23,8.82,0000 0000 0000 0000 000000
2015-06-10 01:50:43,0.01,0.10,0.00,25.90,29.08,31.51,4.78,23.04,1019.10,2030.00,3482.01,3274.89,3559.09,350.40,345.62,8.84,0000 0000 0000 0000 000000
2015-06-10 01:55:44,0.03,0.10,0.00,25.93,29.11,31.54,4.72,23.02,1019.07,2030.00,3481.99,3274.32,3558.99,349.94,345.16,8.87,0000 0000 0000 0000 000000
2015-06-10 02:00:45,0.01,0.10,0.00,25.97,29.13,31.57,4.73,22.98,1019.06,2029.98,3481.79,3274.02,3558.92,350.14,345.20,8.90,0000 0000 0000 0000 000000
2015-06-10 02:05:46,0.02,0.10,0.00,26.00,29.16,31.58,4.65,23.13,1019.06,2029.94,3481.18,3274.00,3558.36,349.08,344.12,8.93,0000 0000 0000 0000 000000
2015-06-10 02:10:47,-0.08,0.10,0.00,26.04,29.19,31.60,4.71,23.07,1019.06,2029.51,3481.01,3273.97,3558.03,350.22,345.20,8.96,0000 0000 0000 0000 000000
2015-06-10 02:15:48,-0.00,0.10,0.00,26.06,29.21,31.62,4.73,23.07,1019.06,2029.15,3480.98,3273.48,3557.99,350.36,344.97,8.99,0000 0000 0000 0000 000000
2015-06-10 02:20:50,0.01,0.10,0.00,26.10,29.24,31.65,4.63,23.08,1018.92,2029.03,3480.72,3273.05,3557.86,348.84,343.64,9.02,0000 0000 0000 0000 000000
2015-06-10 02:25:51,0.03,0.10,0.00,26.13,29.26,31.68,4.69,23.06,1018.72,2029.01,3480.06,3273.00,3557.21,349.36,344.01,9.05,0000 0000 0000 0000 000000
2015-06-10 02:30:53,0.00,0.10,0.00,26.16,29.29,31.72,4.78,23.13,1018.63,2029.00,3479.99,3272.94,3557.01,350.84,345.51,9.08,0000 0000 0000 0000 000000
2015-06-10 02:35:54,0.01,0.10,0.00,26.18,29.32,31.75,4.74,23.02,1018.63,2029.00,3479.98,3272.70,3556.98,349.64,344.45,9.11,0000 0000 0000 0000 000000
2015-06-10 02:40:55,0.03,0.10,0.00,26.21,29.35,31.77,4.74,23.02,1018.61,2028.98,3479.79,3272.17,3556.83,349.99,344.65,9.14,0000 0000 0000 0000 000000
2015-06-10 02:45:57,0.03,0.10,0.00,26.24,29.38,31.81,4.73,23.13,1018.59,2028.93,3479.23,3272.02,3556.22,349.74,344.51,9.17,0000 0000 0000 0000 000000
2015-06-10 02:50:58,-0.05,0.10,0.00,26.26,29.40,31.82,4.66,22.96,1018.58,2028.68,3479.00,3271.99,3556.00,349.76,344.22,9.20,0000 0000 0000 0000 000000
2015-06-10 02:55:59,-0.04,0.10,0.00,26.29,29.43,31.86,4.72,22.98,1018.57,2028.38,3478.98,3271.92,3555.99,350.34,344.86,9.23,0000 0000 0000 0000 000000
2015-06-10 03:01:00,0.03,0.10,0.00,26.30,29.46,31.89,4.70,22.99,1018.57,2028.09,3478.46,3271.27,3555.55,349.94,344.38,9.25,0000 0000 0000 0000 000000
2015-06-10 03:06:02,0.00,0.10,0.00,26.32,29.48,31.92,4.75,23.01,1018.57,2028.01,3478.07,3271.02,3555.09,350.15,344.68,9.28,0000 0000 0000 0000 000000
2015-06-10 03:11:03,0.00,0.10,0.00,26.35,29.51,31.92,4.73,23.02,1018.55,2028.00,3478.00,3271.00,3555.00,350.45,344.98,9.31,0000 0000 0000 0000 000000
2015-06-10 03:16:05,0.00,0.10,0.00,26.38,29.54,31.95,4.69,23.02,1018.47,2028.00,3477.97,3270.98,3555.00,349.92,344.26,9.34,0000 0000 0000 0000 000000
2015-06-10 03:21:06,0.03,0.10,0.00,26.41,29.56,31.98,4.77,23.04,1018.40,2028.00,3477.64,3270.64,3554.71,350.78,344.90,9.37,0000 0000 0000 0000 000000
2015-06-10 03:26:07,0.04,0.10,0.00,26.43,29.59,32.00,4.69,23.04,1018.47,2027.96,3477.06,3270.07,3554.11,350.35,344.51,9.40,0000 0000 0000 0000 000000
2015-06-10 03:31:08,-0.01,0.11,0.00,26.46,29.62,32.02,4.75,23.13,1018.35,2027.90,3476.97,3270.00,3554.00,349.99,343.96,9.43,0000 0000 0000 0000 000000
2015-06-10 03:36:10,-0.04,0.10,0.00,26.49,29.65,32.03,4.70,23.05,1018.14,2027.67,3476.83,3269.95,3553.93,350.34,344.42,9.46,0000 0000 0000 0000 000000
2015-06-10 03:41:11,-0.01,0.10,0.00,26.50,29.67,32.06,4.69,22.96,1018.10,2027.12,3476.14,3269.37,3553.28,350.01,344.16,9.49,0000 0000 0000 0000 000000
2015-06-10 03:46:12,0.01,0.10,0.00,26.53,29.70,32.09,4.66,22.88,1018.09,2027.05,3476.00,3269.03,3553.00,350.30,344.31,9.52,0000 0000 0000 0000 000000
2015-06-10 03:51:13,-0.00,0.10,0.00,26.56,29.73,32.11,4.70,22.83,1018.10,2027.01,3475.97,3269.00,3552.98,350.52,344.65,9.55,0000 0000 0000 0000 000000
2015-06-10 03:56:14,0.02,0.10,0.00,26.59,29.76,32.15,4.66,22.96,1018.08,2027.00,3475.57,3268.96,3552.73,349.88,343.93,9.58,0000 0000 0000 0000 000000
2015-06-10 04:01:16,0.04,0.11,0.00,26.62,29.77,32.17,4.65,22.92,1018.08,2027.00,3475.06,3268.59,3552.15,349.75,343.74,9.61,0000 0000 0000 0000 000000
2015-06-10 04:06:17,0.01,0.11,0.00,26.64,29.80,32.19,4.71,22.93,1018.08,2026.97,3475.00,3268.06,3552.00,349.77,343.78,9.64,0000 0000 0000 0000 000000
2015-06-10 04:11:18,-0.02,0.11,0.00,26.67,29.83,32.22,4.66,22.99,1018.08,2026.81,3474.90,3268.00,3551.96,349.89,344.05,9.66,0000 0000 0000 0000 000000
2015-06-10 04:16:19,-0.03,0.10,0.00,26.69,29.86,32.23,4.68,23.00,1018.08,2026.34,3474.18,3267.90,3551.41,349.47,343.42,9.69,0000 0000 0000 0000 000000
2015-06-10 04:21:21,-0.00,0.10,0.00,26.72,29.89,32.27,4.71,22.92,1018.08,2026.10,3474.04,3267.54,3551.03,349.74,343.61,9.72,0000 0000 0000 0000 000000
2015-06-10 04:26:22,0.01,0.10,0.00,26.75,29.91,32.28,4.67,23.01,1018.07,2026.03,3474.00,3267.08,3550.99,349.71,343.47,9.75,0000 0000 0000 0000 000000
2015-06-10 04:31:23,0.01,0.10,0.00,26.77,29.94,32.31,4.74,23.07,1018.00,2026.00,3473.85,3267.00,3550.68,349.91,343.68,9.78,0000 0000 0000 0000 000000
2015-06-10 04:36:24,0.02,0.11,0.00,26.81,29.96,32.34,4.64,22.93,1017.99,2026.00,3473.52,3266.98,3550.13,349.67,343.45,9.81,0000 0000 0000 0000 000000
2015-06-10 04:41:25,0.02,0.11,0.00,26.83,29.99,32.36,4.67,22.89,1017.99,2026.00,3473.09,3266.79,3550.01,349.89,343.51,9.84,0000 0000 0000 0000 000000
2015-06-10 04:46:27,0.02,0.11,0.00,26.86,30.02,32.38,4.66,23.05,1017.94,2025.96,3473.00,3266.09,3549.92,349.58,343.37,9.87,0000 0000 0000 0000 000000
2015-06-10 04:51:28,-0.01,0.11,0.00,26.88,30.05,32.42,4.63,22.98,1017.89,2025.78,3472.84,3266.01,3549.43,349.48,343.25,9.90,0000 0000 0000 0000 000000
2015-06-10 04:56:29,-0.04,0.11,0.00,26.91,30.07,32.44,4.66,22.89,1017.73,2025.35,3472.24,3265.97,3549.02,350.08,343.84,9.93,0000 0000 0000 0000 000000
2015-06-10 05:01:30,-0.02,0.10,0.00,26.94,30.10,32.46,4.74,23.02,1017.62,2025.08,3472.06,3265.75,3548.99,350.82,344.27,9.96,0000 0000 0000 0000 000000
2015-06-10 05:06:31,0.02,0.11,0.00,26.96,30.13,32.47,4.65,23.00,1017.60,2025.01,3471.99,3265.12,3548.73,349.65,342.90,9.99,0000 0000 0000 0000 000000
2015-06-10 05:11:32,0.01,0.11,0.00,26.99,30.16,32.49,4.68,22.98,1017.60,2025.00,3471.83,3265.00,3548.15,349.97,343.26,10.02,0000 0000 0000 0000 000000
2015-06-10 05:16:34,0.02,0.11,0.00,27.01,30.18,32.50,4.65,22.98,1017.62,2025.00,3471.40,3264.99,3548.04,349.94,343.11,10.05,0000 0000 0000 0000 000000
2015-06-10 05:21:35,0.01,0.11,0.00,27.04,30.21,32.53,4.69,22.93,1017.60,2024.99,3471.03,3264.92,3547.99,350.38,343.72,10.08,0000 0000 0000 0000 000000
2015-06-10 05:26:36,0.02,0.11,0.00,27.06,30.23,32.55,4.68,22.99,1017.60,2024.98,3470.98,3264.61,3547.92,350.02,343.34,10.10,0000 0000 0000 0000 000000
2015-06-10 05:31:37,0.03,0.11,0.00,27.08,30.26,32.58,4.75,22.98,1017.60,2024.89,3470.57,3264.04,3547.33,350.32,343.51,10.13,0000 0000 0000 0000 000000
2015-06-10 05:36:38,-0.02,0.11,0.00,27.10,30.28,32.61,4.66,22.88,1017.60,2024.68,3470.08,3264.00,3547.04,349.99,343.42,10.16,0000 0000 0000 0000 000000
2015-06-10 05:41:40,-0.07,0.11,0.00,27.12,30.31,32.64,4.67,22.91,1017.59,2024.28,3470.00,3263.96,3547.00,350.34,343.58,10.19,0000 0000 0000 0000 000000
2015-06-10 05:46:41,0.00,0.11,0.00,27.15,30.33,32.66,4.72,22.83,1017.59,2024.04,3469.98,3263.73,3546.86,350.39,343.60,10.22,0000 0000 0000 0000 000000
2015-06-10 05:51:42,0.05,0.11,0.00,27.16,30.36,32.68,4.68,23.04,1017.59,2024.02,3469.62,3263.16,3546.35,349.87,342.90,10.25,0000 0000 0000 0000 000000
2015-06-10 05:56:43,0.01,0.11,0.00,27.19,30.38,32.72,4.64,22.95,1017.59,2024.00,3469.09,3263.00,3546.02,349.54,342.69,10.28,0000 0000 0000 0000 000000
2015-06-10 06:01:44,0.00,0.11,0.00,27.21,30.41,32.74,4.64,22.92,1017.59,2023.99,3469.00,3263.00,3545.98,349.84,343.12,10.31,0000 0000 0000 0000 000000
2015-06-10 06:06:46,0.00,0.11,0.00,27.22,30.43,32.76,4.66,22.85,1017.59,2023.99,3468.99,3262.99,3545.94,349.82,343.05,10.34,0000 0000 0000 0000 000000
2015-06-10 06:11:47,0.02,0.11,0.00,27.25,30.45,32.78,4.62,22.98,1017.57,2023.99,3468.80,3262.95,3545.56,348.70,341.78,10.37,0000 0000 0000 0000 000000
2015-06-10 06:16:48,0.04,0.11,0.00,27.28,30.47,32.80,4.68,22.98,1017.59,2023.94,3468.30,3262.37,3545.05,349.95,342.85,10.40,0000 0000 0000 0000 000000
2015-06-10 06:21:50,-0.02,0.11,0.00,27.30,30.50,32.82,4.72,22.86,1017.59,2023.78,3468.00,3262.02,3544.99,351.20,344.23,10.43,0000 0000 0000 0000 000000
2015-06-10 06:26:51,-0.00,0.11,0.00,27.32,30.52,32.84,4.69,22.91,1017.58,2023.68,3467.98,3262.00,3544.95,349.82,342.97,10.46,0000 0000 0000 0000 000000
2015-06-10 06:31:52,-0.05,0.11,0.00,27.33,30.55,32.88,4.69,22.93,1017.58,2023.15,3467.52,3261.97,3544.25,349.36,342.37,10.48,0000 0000 0000 0000 000000
2015-06-10 06:36:53,0.02,0.11,0.00,27.35,30.57,32.89,4.71,22.86,1017.54,2023.05,3467.04,3261.60,3544.01,350.52,343.47,10.51,0000 0000 0000 0000 000000
2015-06-10 06:41:54,0.01,0.11,0.00,27.37,30.59,32.91,4.69,22.85,1017.52,2023.01,3466.98,3261.04,3544.00,350.13,343.00,10.54,0000 0000 0000 0000 000000
2015-06-10 06:46:55,0.02,0.11,0.00,27.38,30.62,32.93,4.69,22.88,1017.44,2023.00,3466.62,3261.00,3543.81,350.17,343.06,10.57,0000 0000 0000 0000 000000
2015-06-10 06:51:56,0.02,0.11,0.00,27.41,30.64,32.95,4.67,22.84,1017.48,2023.00,3466.09,3260.96,3543.11,349.60,342.50,10.60,0000 0000 0000 0000 000000
2015-06-10 06:56:57,0.02,0.11,0.00,27.43,30.66,32.98,4.69,22.86,1017.36,2022.97,3466.00,3260.58,3543.01,349.82,342.44,10.63,0000 0000 0000 0000 000000
2015-06-10 07:01:59,0.04,0.11,0.00,27.45,30.68,33.00,4.65,22.85,1017.32,2022.93,3465.55,3260.05,3542.71,349.74,342.64,10.66,0000 0000 0000 0000 000000
2015-06-10 07:07:00,-0.01,0.11,0.00,27.46,30.70,33.03,4.64,22.83,1017.31,2022.68,3465.03,3259.99,3542.10,349.91,342.67,10.69,0000 0000 0000 0000 000000
2015-06-10 07:12:01,-0.04,0.11,0.00,27.48,30.72,33.04,4.65,22.77,1017.32,2022.46,3465.00,3259.92,3542.02,350.44,343.22,10.72,0000 0000 0000 0000 000000
2015-06-10 07:17:02,-0.02,0.11,0.00,27.50,30.75,33.06,4.66,22.77,1017.31,2022.08,3464.86,3259.43,3541.99,349.58,342.48,10.75,0000 0000 0000 0000 000000
2015-06-10 07:22:04,0.03,0.11,0.00,27.51,30.77,33.08,4.65,22.81,1017.19,2022.01,3464.23,3259.03,3541.86,349.70,342.16,10.78,0000 0000 0000 0000 000000
2015-06-10 07:27:05,0.01,0.11,0.00,27.55,30.79,33.11,4.59,22.90,1017.12,2022.00,3464.06,3259.00,3541.43,349.11,341.80,10.81,0000 0000 0000 0000 000000
2015-06-10 07:32:07,0.01,0.11,0.00,27.56,30.81,33.13,4.63,22.88,1017.12,2022.00,3463.99,3258.98,3541.02,349.82,342.44,10.84,0000 0000 0000 0000 000000
2015-06-10 07:37:08,0.00,0.11,0.00,27.59,30.83,33.15,4.64,22.75,1017.12,2022.00,3463.95,3258.93,3541.00,349.90,342.40,10.87,0000 0000 0000 0000 000000
2015-06-10 07:42:09,0.03,0.11,0.00,27.61,30.85,33.17,4.71,22.83,1017.12,2021.99,3463.67,3258.52,3540.97,350.16,342.72,10.89,0000 0000 0000 0000 000000
2015-06-10 07:47:11,0.03,0.11,0.00,27.64,30.87,33.19,4.68,22.75,1017.12,2021.98,3463.18,3258.13,3540.77,349.88,342.40,10.92,0000 0000 0000 0000 000000
2015-06-10 07:52:12,0.01,0.11,0.00,27.66,30.89,33.21,4.66,22.84,1017.12,2021.96,3463.02,3258.01,3540.29,349.81,342.28,10.95,0000 0000 0000 0000 000000
2015-06-10 07:57:13,-0.05,0.11,0.00,27.69,30.91,33.23,4.64,22.85,1017.12,2021.70,3463.00,3257.99,3540.01,349.95,342.37,10.98,0000 0000 0000 0000 000000
2015-06-10 08:02:14,-0.02,0.11,0.00,27.70,30.93,33.25,4.71,22.88,1017.11,2021.55,3462.94,3257.95,3540.00,349.84,342.09,11.01,0000 0000 0000 0000 000000
2015-06-10 08:07:16,-0.06,0.11,0.00,27.73,30.95,33.26,4.66,22.70,1017.11,2021.12,3462.83,3257.78,3539.93,350.21,342.59,11.04,0000 0000 0000 0000 000000
2015-06-10 08:12:17,0.05,0.11,0.00,27.76,30.97,33.28,4.64,22.79,1017.11,2021.07,3462.36,3257.31,3539.67,350.26,342.55,11.07,0000 0000 0000 0000 000000
2015-06-10 08:17:18,0.01,0.11,0.00,27.79,31.00,33.30,4.70,22.71,1017.11,2021.04,3462.03,3257.07,3539.16,350.42,342.82,11.10,0000 0000 0000 0000 000000
2015-06-10 08:22:19,-0.00,0.11,0.00,27.82,31.01,33.32,4.67,22.82,1017.11,2021.00,3462.00,3257.00,3539.00,350.42,342.62,11.13,0000 0000 0000 0000 000000
2015-06-10 08:27:20,0.00,0.11,0.00,27.85,31.03,33.34,4.69,22.78,1017.12,2021.00,3461.90,3256.98,3538.95,350.47,342.69,11.16,0000 0000 0000 0000 000000
2015-06-10 08:32:21,0.04,0.11,0.00,27.87,31.06,33.36,4.69,22.87,1017.11,2020.99,3461.34,3256.71,3538.62,349.83,342.08,11.19,0000 0000 0000 0000 000000
2015-06-10 08:37:23,0.03,0.11,0.00,27.90,31.08,33.37,4.67,22.75,1017.12,2020.97,3461.06,3256.20,3538.17,350.26,342.44,11.22,0000 0000 0000 0000 000000
2015-06-10 08:42:24,-0.01,0.11,0.00,27.92,31.10,33.40,4.67,22.83,1017.11,2020.91,3461.00,3256.01,3538.00,349.95,342.08,11.25,0000 0000 0000 0000 000000
2015-06-10 08:47:25,-0.02,0.11,0.00,27.95,31.12,33.42,4.66,22.83,1017.11,2020.82,3461.00,3256.00,3537.99,349.62,341.81,11.28,0000 0000 0000 0000 000000
2015-06-10 08:52:27,-0.05,0.11,0.00,27.97,31.15,33.43,4.66,22.71,1017.11,2020.53,3460.94,3256.00,3537.95,350.04,342.26,11.31,0000 0000 0000 0000 000000
2015-06-10 08:57:28,-0.03,0.11,0.00,28.01,31.16,33.46,4.69,22.82,1017.11,2020.15,3460.84,3255.98,3537.60,350.19,342.18,11.33,0000 0000 0000 0000 000000
2015-06-10 09:02:30,0.03,0.11,0.00,28.04,31.19,33.48,4.63,22.76,1017.11,2020.05,3460.16,3255.68,3537.10,349.70,341.74,11.36,0000 0000 0000 0000 000000
2015-06-10 09:07:31,0.02,0.11,0.00,28.07,31.21,33.50,4.64,22.77,1017.11,2020.00,3460.00,3255.09,3537.00,349.70,341.68,11.39,0000 0000 0000 0000 000000
2015-06-10 09:12:33,0.01,0.11,0.00,28.09,31.23,33.53,4.62,22.75,1017.11,2020.00,3459.94,3255.00,3536.77,350.22,341.88,11.42,0000 0000 0000 0000 000000
2015-06-10 09:17:34,0.02,0.11,0.00,28.12,31.26,33.55,4.68,22.73,1017.11,2020.00,3459.48,3254.96,3536.29,350.09,342.14,11.45,0000 0000 0000 0000 000000
2015-06-10 09:22:36,0.03,0.11,0.00,28.14,31.28,33.57,4.73,22.77,1017.11,2019.99,3459.05,3254.55,3536.02,350.33,342.21,11.48,0000 0000 0000 0000 000000
2015-06-10 09:27:37,0.01,0.12,0.00,28.17,31.30,33.59,4.69,22.73,1017.11,2019.94,3459.00,3254.10,3536.00,350.35,342.35,11.51,0000 0000 0000 0000 000000
2015-06-10 09:32:38,-0.03,0.11,0.00,28.20,31.33,33.61,4.71,22.79,1017.11,2019.71,3458.95,3254.00,3535.92,350.31,342.10,11.54,0000 0000 0000 0000 000000
2015-06-10 09:37:39,-0.04,0.11,0.00,28.23,31.35,33.63,4.65,22.66,1017.11,2019.35,3458.59,3254.00,3535.42,349.56,341.43,11.57,0000 0000 0000 0000 000000
2015-06-10 09:42:41,-0.00,0.11,0.00,28.26,31.37,33.66,4.64,22.74,1017.11,2019.08,3458.06,3253.79,3535.05,350.36,342.14,11.60,0000 0000 0000 0000 000000
2015-06-10 09:47:42,0.02,0.11,0.00,28.29,31.39,33.68,4.67,22.72,1017.11,2019.01,3457.99,3253.09,3534.99,350.55,342.37,11.63,0000 0000 0000 0000 000000
2015-06-10 09:52:43,0.00,0.11,0.00,28.33,31.42,33.70,4.63,22.71,1017.11,2019.00,3457.97,3253.00,3534.85,349.34,340.94,11.66,0000 0000 0000 0000 000000
2015-06-10 09:57:44,0.03,0.11,0.00,28.36,31.44,33.72,4.64,22.72,1017.07,2019.00,3457.46,3253.00,3534.20,349.95,341.79,11.69,0000 0000 0000 0000 000000
2015-06-10 10:02:45,0.01,0.12,0.00,28.39,31.47,33.74,4.63,22.78,1017.10,2018.98,3457.01,3252.82,3534.00,349.15,340.78,11.72,0000 0000 0000 0000 000000
2015-06-10 10:07:47,0.03,0.12,0.00,28.43,31.50,33.77,4.70,22.63,1017.10,2018.93,3456.97,3252.15,3533.96,350.47,341.91,11.74,0000 0000 0000 0000 000000
2015-06-10 10:12:48,-0.02,0.12,0.00,28.46,31.53,33.80,4.70,22.66,1017.10,2018.68,3456.51,3252.00,3533.48,350.13,341.49,11.77,0000 0000 0000 0000 000000
2015-06-10 10:17:49,-0.03,0.11,0.00,28.49,31.56,33.83,4.71,22.64,1017.09,2018.28,3456.03,3251.99,3533.02,350.60,342.01,11.80,0000 0000 0000 0000 000000
2015-06-10 10:22:51,-0.00,0.11,0.00,28.52,31.59,33.86,4.62,22.77,1017.10,2018.11,3456.00,3251.69,3532.99,349.64,341.11,11.83,0000 0000 0000 0000 000000
2015-06-10 10:27:52,0.04,0.11,0.00,28.56,31.62,33.90,4.68,22.85,1017.10,2018.01,3455.71,3251.07,3532.44,350.47,341.86,11.86,0000 0000 0000 0000 000000
2015-06-10 10:32:53,0.01,0.12,0.00,28.59,31.65,33.94,4.72,22.68,1017.10,2018.00,3455.08,3250.99,3532.02,350.44,341.97,11.89,0000 0000 0000 0000 000000
2015-06-10 10:37:55,0.00,0.12,0.00,28.63,31.69,33.96,4.62,22.57,1017.10,2018.00,3455.00,3250.96,3532.00,349.97,341.33,11.92,0000 0000 0000 0000 000000
2015-06-10 10:42:56,0.03,0.12,0.00,28.67,31.71,34.00,4.64,22.63,1017.10,2017.98,3454.96,3250.41,3531.79,349.55,340.88,11.95,0000 0000 0000 0000 000000
2015-06-10 10:47:57,0.02,0.12,0.00,28.71,31.75,34.03,4.66,22.65,1017.10,2017.95,3454.73,3250.03,3531.21,350.36,341.53,11.98,0000 0000 0000 0000 000000
2015-06-10 10:52:58,-0.07,0.12,0.00,28.74,31.78,34.07,4.66,22.52,1017.08,2017.59,3454.08,3249.99,3531.01,350.16,341.54,12.01,0000 0000 0000 0000 000000
2015-06-10 10:58:00,-0.01,0.12,0.00,28.78,31.82,34.12,4.66,22.61,1017.06,2017.21,3453.98,3249.81,3530.95,349.88,341.06,12.04,0000 0000 0000 0000 000000
2015-06-10 11:03:01,0.03,0.12,0.00,28.81,31.85,34.17,4.66,22.59,1017.07,2017.07,3453.74,3249.19,3530.31,350.24,341.37,12.07,0000 0000 0000 0000 000000
2015-06-10 11:08:02,0.01,0.12,0.00,28.86,31.89,34.21,4.66,22.63,1017.10,2017.00,3453.04,3249.00,3530.01,350.22,341.32,12.10,0000 0000 0000 0000 000000
2015-06-10 11:13:03,0.02,0.12,0.00,28.90,31.92,34.25,4.67,22.60,1017.10,2017.00,3452.94,3248.75,3529.78,349.81,340.94,12.13,0000 0000 0000 0000 000000
2015-06-10 11:18:05,0.05,0.12,0.00,28.93,31.96,34.29,4.65,22.51,1017.08,2016.96,3452.29,3248.09,3529.09,350.82,341.82,12.15,0000 0000 0000 0000 000000
2015-06-10 11:23:06,-0.00,0.12,0.00,28.96,31.99,34.33,4.63,22.53,1017.00,2016.89,3452.00,3248.00,3529.00,350.02,341.00,12.18,0000 0000 0000 0000 000000
2015-06-10 11:28:07,-0.05,0.12,0.00,28.98,32.02,34.37,4.62,22.65,1016.99,2016.49,3451.79,3247.87,3528.67,349.47,340.31,12.21,0000 0000 0000 0000 000000
2015-06-10 11:33:09,0.00,0.12,0.00,29.00,32.06,34.41,4.64,22.55,1017.05,2016.11,3451.10,3247.26,3528.06,350.01,341.06,12.24,0000 0000 0000 0000 000000
2015-06-10 11:38:10,0.00,0.12,0.00,29.02,32.09,34.43,4.59,22.59,1017.01,2016.03,3451.00,3247.01,3527.99,349.34,340.25,12.27,0000 0000 0000 0000 000000
2015-06-10 11:43:11,-0.00,0.12,0.00,29.02,32.11,34.46,4.59,22.57,1016.94,2016.00,3450.87,3246.99,3527.95,349.57,340.49,12.30,0000 0000 0000 0000 000000
2015-06-10 11:48:13,0.06,0.12,0.00,29.04,32.14,34.47,4.62,22.44,1016.88,2016.00,3450.18,3246.75,3527.32,349.57,340.17,12.33,0000 0000 0000 0000 000000
2015-06-10 11:53:14,0.02,0.12,0.00,29.04,32.17,34.48,4.70,22.49,1016.80,2016.00,3450.00,3246.13,3527.01,350.37,340.92,12.36,0000 0000 0000 0000 000000
2015-06-10 11:58:15,0.01,0.12,0.00,29.04,32.20,34.51,4.69,22.53,1016.80,2015.99,3449.72,3246.00,3526.79,350.16,340.95,12.39,0000 0000 0000 0000 000000
2015-06-10 12:03:16,0.04,0.12,0.00,29.02,32.22,34.53,4.67,22.51,1016.83,2015.95,3449.08,3245.85,3526.14,350.13,340.95,12.42,0000 0000 0000 0000 000000
2015-06-10 12:08:17,0.01,0.12,0.00,29.02,32.24,34.55,4.69,22.49,1016.75,2015.87,3448.99,3245.25,3526.00,350.37,341.38,12.45,0000 0000 0000 0000 000000
2015-06-10 12:13:19,-0.03,0.12,0.00,29.01,32.26,34.57,4.69,22.52,1016.65,2015.60,3448.75,3245.01,3525.96,350.45,340.85,12.48,0000 0000 0000 0000 000000
2015-06-10 12:18:20,-0.01,0.12,0.00,29.01,32.28,34.59,4.65,22.63,1016.64,2015.26,3448.05,3244.98,3525.47,349.62,340.32,12.51,0000 0000 0000 0000 000000
2015-06-10 12:23:22,-0.01,0.12,0.00,29.01,32.30,34.60,4.58,22.49,1016.62,2015.05,3447.99,3244.77,3525.02,349.85,340.72,12.54,0000 0000 0000 0000 000000
2015-06-10 12:28:23,0.04,0.12,0.00,29.01,32.32,34.62,4.60,22.66,1016.64,2015.01,3447.64,3244.16,3524.98,350.07,340.92,12.56,0000 0000 0000 0000 000000
2015-06-10 12:33:24,0.02,0.12,0.00,29.01,32.33,34.62,4.61,22.54,1016.64,2015.00,3447.04,3244.00,3524.60,349.88,340.74,12.59,0000 0000 0000 0000 000000
2015-06-10 12:38:25,0.01,0.12,0.00,29.00,32.35,34.63,4.68,22.61,1016.63,2015.00,3446.99,3243.99,3524.26,350.04,340.83,12.62,0000 0000 0000 0000 000000
2015-06-10 12:43:26,0.01,0.12,0.00,29.02,32.36,34.65,4.65,22.57,1016.63,2015.00,3446.78,3243.92,3524.01,350.14,340.90,12.65,0000 0000 0000 0000 000000
2015-06-10 12:48:28,0.03,0.12,0.00,29.02,32.37,34.66,4.66,22.61,1016.63,2015.00,3446.30,3243.61,3524.00,349.75,340.71,12.68,0000 0000 0000 0000 000000
2015-06-10 12:53:29,0.02,0.13,0.00,29.02,32.39,34.67,4.66,22.58,1016.63,2014.99,3446.01,3243.06,3523.95,350.59,341.49,12.71,0000 0000 0000 0000 000000
2015-06-10 12:58:29,0.01,0.13,0.00,29.02,32.40,34.68,4.68,22.49,1016.63,2014.98,3445.98,3243.00,3523.80,350.25,341.12,12.74,0000 0000 0000 0000 000000